Regional Weather Roundup
Issued by NWS Grand Forks, ND

Home | Current Version | Previous Version | Text Only | Print | Product List | Glossary On
Versions: 1 2 3 4 5 6 7 8 9 10 11 12 13 14 15 16 17 18 19 20 21 22 23 24 25 26 27 28 29 30 31 32 33 34 35 36 37 38 39 40 41 42 43 44 45 46 47 48 49 50
000
ASUS43 KFGF 121710
RWRFGF
PRAIRIE TO PINES  WEATHER ROUNDUP
NATIONAL WEATHER SERVICE EASTERN NORTH DAKOTA/GRAND FORKS ND
1100 AM CST FRI FEB 12 2016

 **SATELLITE DATA USED TO AUGMENT SKY COVER AT AUTOMATED STATIONS**
 *****  WEATHER ACROSS EASTERN NORTH DAKOTA  *****

CITY           SKY/WX    TMP DP  RH WIND       PRES   REMARKS
GRAND FORKS    MOSUNNY   -4 -13  65 N17       30.66R WCI -26
GRAND FRKS AFB MOSUNNY   -4 -15  58 N15G22    30.65R WCI -24
DEVILS LAKE    CLOUDY    -8 -14  74 N12       30.62R WCI -27
FARGO          MOSUNNY    0 -11  59 N18       30.64R WCI -21
WAHPETON ARPT  CLOUDY     1  -6  71 N20       30.60R WCI -20
$$

 ***** WEATHER ACROSS CENTRAL AND WESTERN NORTH DAKOTA  *****

CITY           SKY/WX    TMP DP  RH WIND       PRES   REMARKS
BISMARCK       CLOUDY     9  -2  61 NE6       30.61R WCI  -1
MINOT          CLOUDY     4  -8  57 N7        30.60S WCI  -8
JAMESTOWN      MOSUNNY   -2 -10  69 N17       30.59R WCI -23
MINOT AFB      CLOUDY     2  -7  66 MISG      30.60S
GARRISON         N/A      4  -5  66 VRB5      30.57S WCI  -5
WILLISTON      CLOUDY     7  -2  66 N5        30.56S WCI  -2
DICKINSON      CLOUDY     7  -4  60 E10       30.47R WCI  -8
HETTINGER      CLOUDY    13   8  81 E7        30.48R HAZE    WCI   3
$$

 *****  OTHER AIRPORT OBSERVATIONS IN OUR AREA  *****

CITY           SKY/WX    TMP DP  RH WIND       PRES   REMARKS
WALHALLA       FAIR      -4 -11  71 N12       30.67R WCI -22
GRAFTON AIRPOR FAIR      -6 -15  65 N20G28    30.69R WCI -29
VALLEY CITY AR FAIR      -2 -11  65 N13       30.62R WCI -21
CANDO          NOT AVBL
CAVALIER APRT  FAIR      -6 -13  71 N16       30.66S WCI -28
GWINNER        FAIR       3  -6  66 N14       30.61R WCI -15
SHEYENNE NWR     N/A      0 -12  57 N12       29.95S WCI -17
ROLLA          FAIR      -8 -13  77 N7        30.58S WCI -22
 ***** THE ABOVE OBSERVATIONS ARE NON NWS ARE NOT QUALITY
       CONTROLLED AND MAY MIS-REPORT RAIN FOR SNOW...
$$

  *****  WEATHER ACROSS NORTHERN MINNESOTA  *****

CITY           SKY/WX    TMP DP  RH WIND       PRES   REMARKS
FLAG ISLAND    MOSUNNY  -11 -20  64 NW21      30.50R WCI -37
WARROAD        SUNNY     -9 -18  64 W10G16    30.54R WCI -28
ROSEAU         SUNNY     -9 -17  70 NW12      30.56S WCI -29
HALLOCK        SUNNY     -8 -17  65 N20       30.63S WCI -32
THF RVR FALLS  SUNNY     -6 -20  49 N14       30.58R WCI -26
BAUDETTE       MOSUNNY  -11 -21  61 NW16      30.49R WCI -34
WASKISH        SUNNY     -8 -18  59 NW12G20   30.49R WCI -27
CROOKSTON      MOSUNNY   -6 -11  77 N17       30.64R WCI -28
STEPHEN NDAWN    N/A     -8 -15  71 N15         N/A  WCI -29
GREENBUSH NDAW   N/A     -9 -17  70 NW15        N/A  WCI -31
$$
  *****  WEATHER ACROSS CENTRAL AND WEST MINNESOTA  *****

CITY           SKY/WX    TMP DP  RH WIND       PRES   REMARKS
FOSSTON        SUNNY     -4 -17  54 N14       30.54R WCI -24
BEMIDJI        SUNNY     -6 -17  60 N16       30.47R WCI -28
PARK RAPIDS    SUNNY     -1 -15  51 N15G22    30.46R WCI -21
ELBOW LAKE     FAIR      -1  -8  71 NW16G22   30.54R WCI -21
WADENA         SUNNY      0 -11  60 N14G20    30.47R WCI -19
DETROIT LAKES  SUNNY     -2  -9  71 N15       30.53R WCI -22
MOORHEAD       MOSUNNY   -2  -9  71 N18       30.62R WCI -24
FERGUS FALLS   PTSUNNY    0  -9  65 N18G28    30.59R WCI -22
MORRIS MN      MOSUNNY    3  -6  66 N24       30.53R WCI -20
STAPLES        SUNNY      0 -13  55 N13       30.46R WCI -18
$$
  *****  WEATHER ELSEWHERE ACROSS MINNESOTA  *****

CITY           SKY/WX    TMP DP  RH WIND       PRES   REMARKS
DULUTH         MOSUNNY   -3 -16  53 NW20G26   30.31R WCI -26
INTRNTL FALLS  SUNNY     -8 -20  55 NW13      30.44R WCI -28
ELY            MOSUNNY   -8 -18  59 NW10G18   30.32R WCI -26
CLOQUET        SUNNY     -2 -17  50 NW16G24   30.35R WCI -23
WHEATON        CLOUDY     3  -2  78 NW18G24   30.61R WCI -17
BRAINERD       SUNNY      0 -13  54 N21G26    30.44R WCI -22
HIBBING        SUNNY     -7 -17  62 NW20      30.36S WCI -31
ALEXANDRIA     SUNNY      0 -11  59 N20       30.47R WCI -22
SAINT CLOUD    SUNNY      3  -8  60 N16G24    30.45R WCI -16
MINNEAPOLIS    SUNNY      8  -5  55 NW23G31   30.41R WCI -13
$$

  *****  WEATHER ACROSS SOUTH DAKOTA  *****

CITY           SKY/WX    TMP DP  RH WIND       PRES   REMARKS
SIOUX FALLS    MOSUNNY   11  -1  58 N18       30.52R WCI  -7
BROOKINGS      SUNNY      7  -4  60 N17       30.50R WCI -12
WATERTOWN      CLOUDY     3  -6  66 N21       30.50R WCI -18
HURON          SUNNY     13   4  67 N16       30.59R WCI  -3
SISSETON         N/A      1  -7  68 N20       30.59R WCI -20
ABERDEEN       SUNNY      8  -3  61 N17       30.61R WCI -10
MITCHELL       MOSUNNY   15   7  70 N17       30.58R WCI  -1
PIERRE         LGT SNOW  21  15  78 NE9       30.53R WCI  11
MOBRIDGE       SUNNY     14   4  64 N13       30.53R WCI   0
RAPID CITY     CLOUDY    28  26  92 E5        30.41R FOG     WCI  23
$$

  *****  SOME WEATHER IN NEARBY STATES *****

CITY           SKY/WX    TMP DP  RH WIND       PRES   REMARKS
GLASGOW MT     CLOUDY    15   8  73 E21       30.43F WCI  -2
GREAT FALLS MT CLOUDY    36  32  85 E9        30.17F
CHEYENNE WY    CLOUDY    45  26  47 CALM      30.32R
SCOTTSBLUFF NE CLOUDY    35  29  78 NE15      30.37R
OMAHA NE       CLOUDY    24  15  68 N22       30.49R WCI   9
DES MOINES IA  MOSUNNY   19   7  59 N21G32    30.42R WCI   3
DAVENPORT IA   PTSUNNY   23  10  57 NW23G32   30.28R WCI   7
CHICAGO IL     PTSUNNY   20   8  60 NW20      30.15S WCI   4
EAU CLAIRE WI  SUNNY     10  -5  50 N14G29    30.31R WCI  -6
LA CROSSE WI   MOSUNNY   14   1  56 NW21      30.29R WCI  -4
$$

  *****  SOME NATIONAL WEATHER *****

CITY           SKY/WX    TMP DP  RH WIND       PRES   REMARKS
LA GUARDIA NY  PTSUNNY   25  -1  32 SW8       30.19F WCI  16
RALEIGH NC     CLOUDY    30   8  39 VRB3      30.19F
ATLANTA GA     MOSUNNY   51  28  41 CALM      30.11F
NEW ORLEANS LA CLOUDY    72  56  57 W20       30.27F
OKLAHOMA CITY  MOSUNNY   52  33  48 N13       30.35R
ALBUQUERQUE NM SUNNY     46  21  37 N6        30.41F
SALT LAKE CITY FOG       30  27  88 CALM      30.44S VSB 1
LOS ANGELES CA MOSUNNY   67  36  31 E5        30.12R
BOISE ID       SUNNY     37  31  78 SE3       30.34F
SEATTLE WA     PTSUNNY   53  51  93 W6        30.06S
$$

*** WEATHER ACROSS MANITOBA...SASKATCHEWAN AND ONTARIO ***
                ***ONTARIO***

CITY           SKY/WX    TMP DP  RH WIND       PRES   REMARKS
GERALDTON      NOT AVBL
THUNDER BAY    MOSUNNY   -8 -24  45 N15G24    30.30R WCI -29
SIOUX LOOKOUT  SUNNY    -17 -26  63 W15       30.33R WCI -41
TORONTO        FLURRIES  23  12  63 SW25G31   29.90F WCI   7
BIG TROUT LK   PTSUNNY  -24 -33  62 NW15G22   30.26R WCI -50
PICKLE LAKE    CRYSTALS -18 -29  57 NW10G18   30.21R WCI -39
DRYDEN         SUNNY    -13 -24  58 NW12G18   30.36R WCI -33
KENORA         SUNNY    -13 -22  64 N12       30.44R WCI -33
$$
                *** MANITOBA***

CITY           SKY/WX    TMP DP  RH WIND       PRES   REMARKS
BRANDON        MOSUNNY   -8 -15  71 NW9       30.65R WCI -25
DAUPHIN        SUNNY     -9 -17  70 NW6       30.70R WCI -23
ISLAND LAKE    SUNNY    -20 -27  69 W10       30.47S WCI -41
PILOT MOUND      N/A    -11 -15  84 NW10        N/A  WCI -30
THE PAS        MOSUNNY  -17 -26  63 W9        30.70S WCI -36
THOMPSON       SUNNY    -18 -26  69 NW7       30.58R WCI -35
WINNIPEG       NOT AVBL
LYNN LAKE      SUNNY    -22 -29  69 NW8       30.60S WCI -41
CHURCHILL      CRYSTALS -20 -27  69 NW22G30   30.43R VSB 1   WCI -50
GILLAM         SUNNY    -18 -27  63 NW16      30.45S WCI -44
$$
                ***SASKATCHEWAN***

CITY           SKY/WX    TMP DP  RH WIND       PRES   REMARKS
ESTEVAN        PTSUNNY   10  -2  56 S3        30.56F
KINDERSLEY     CLOUDY     7   0  72 E17       30.39F WCI -12
LLOYDMINSTER   CLOUDY     1  -4  78 SE14      30.40S WCI -17
PRINCE ALBERT  PTSUNNY  -15 -18  84 SE3       30.64F
REGINA         PTSUNNY    5  -2  72 SE8       30.56S WCI  -8
YORKTON        SUNNY    -13 -17  84 W5        30.62S WCI -25
N. BATTLEFORD  LGT SNOW  -4  -8  84 SE17      30.53F VSB 5/8 WCI -26
LA RONGE       MOSUNNY  -17 -24  70 S5        30.66S WCI -29
SASKATOON      PTSUNNY    0  -8  71 SE13      30.58F WCI -18
SWIFT CURRENT  CLOUDY     9   5  85 SE15G21   30.36F WCI  -8
$$
NOTE: THESE ARE AUTOMATED STATIONS WITH LIMITED QUALITY CONTROL
      "FAIR" INDICATES FEW OR NO CLOUDS BELOW 12,000 FEET WITH NO
      SIGNIFICANT WEATHER AND/OR OBSTRUCTIONS TO VISIBILITY.
      SKY/WX - SKY CONDITION AND SIGNIFICANT WEATHER.
      TMP - AIR TEMPERATURE.    DP   - DEWPOINT TEMPERATURE.
      RH  - RELATIVE HUMIDITY.  PRES - PRESSURE.
      HX  - HEAT INDEX.         WCI  - WIND CHILL INDEX.
$



USA.gov is the U.S. government's official web portal to all federal, state and local government web resources and services.